Stündliche Wetter Holmovka

Heute, 20 Juni, Sonntag

Zeit Temperatur Niederschläge Wind Luftdruck Luftfeuchtigkeit
00:00 +19°C° 0 mm 2 m/S 750 mmHg 90%
01:00 +19°C° 0 mm 2 m/S 750 mmHg 92%
02:00 +19°C° 0 mm 2 m/S 750 mmHg 92%
03:00 +19°C° 0 mm 2 m/S 750 mmHg 92%
04:00 +19°C° 0 mm 2 m/S 749 mmHg 91%
05:00 +20°C° 0 mm 2 m/S 749 mmHg 91%
06:00 +21°C° 0 mm 2 m/S 749 mmHg 85%
07:00 +24°C° 0 mm 2 m/S 749 mmHg 78%
08:00 +26°C° 0 mm 2 m/S 749 mmHg 71%
09:00 +28°C° 0 mm 3 m/S 749 mmHg 66%
10:00 +29°C° 0 mm 3 m/S 749 mmHg 60%
11:00 +30°C° 0 mm 3 m/S 749 mmHg 54%
12:00 +31°C° 0 mm 3 m/S 749 mmHg 52%
13:00 +31°C° 0 mm 3 m/S 749 mmHg 49%
14:00 +33°C° 0 mm 3 m/S 748 mmHg 47%
15:00 +31°C° 0 mm 3 m/S 748 mmHg 50%
16:00 +32°C° 0 mm 4 m/S 748 mmHg 53%
17:00 +30°C° 0 mm 4 m/S 748 mmHg 55%
18:00 +29°C° 0 mm 3 m/S 748 mmHg 63%
19:00 +27°C° 0 mm 3 m/S 748 mmHg 71%
20:00 +25°C° 0 mm 3 m/S 748 mmHg 79%
21:00 +24°C° 0 mm 2 m/S 747 mmHg 82%
22:00 +23°C° 0 mm 2 m/S 747 mmHg 84%
23:00 +20°C° 0 mm 2 m/S 747 mmHg 87%

Morgen, 21 Juni, Montag

Zeit Temperatur Niederschläge Wind Luftdruck Luftfeuchtigkeit
00:00 +20°C° 0 mm 2 m/S 747 mmHg 88%
01:00 +19°C° 0 mm 2 m/S 747 mmHg 90%
02:00 +19°C° 0 mm 2 m/S 747 mmHg 92%
03:00 +19°C° 0 mm 2 m/S 747 mmHg 91%
04:00 +19°C° 0 mm 2 m/S 747 mmHg 90%
05:00 +19°C° 0 mm 2 m/S 747 mmHg 88%
06:00 +21°C° 0 mm 2 m/S 747 mmHg 81%
07:00 +24°C° 0 mm 2 m/S 747 mmHg 74%
08:00 +25°C° 0 mm 3 m/S 747 mmHg 67%
09:00 +27°C° 0 mm 3 m/S 747 mmHg 61%
10:00 +28°C° 0 mm 4 m/S 747 mmHg 54%
11:00 +29°C° 0 mm 4 m/S 747 mmHg 47%
12:00 +30°C° 0 mm 4 m/S 747 mmHg 46%
13:00 +30°C° 0 mm 4 m/S 747 mmHg 44%
14:00 +32°C° 0 mm 4 m/S 747 mmHg 43%
15:00 +30°C° 0 mm 4 m/S 746 mmHg 46%
16:00 +30°C° 0 mm 4 m/S 746 mmHg 49%
17:00 +30°C° 0 mm 4 m/S 746 mmHg 53%
18:00 +28°C° 0 mm 4 m/S 746 mmHg 60%
19:00 +27°C° 0 mm 4 m/S 745 mmHg 68%
20:00 +25°C° 0 mm 4 m/S 745 mmHg 76%
21:00 +24°C° 0 mm 3 m/S 745 mmHg 80%
22:00 +24°C° 0 mm 3 m/S 745 mmHg 84%
23:00 +22°C° 0 mm 3 m/S 745 mmHg 89%

übermorgen, 22 Juni, Dienstag

Zeit Temperatur Niederschläge Wind Luftdruck Luftfeuchtigkeit
00:00 +21°C° 0 mm 3 m/S 745 mmHg 91%
01:00 +20°C° 0 mm 2 m/S 745 mmHg 94%
02:00 +19°C° 0 mm 2 m/S 745 mmHg 96%
03:00 +20°C° 0 mm 2 m/S 745 mmHg 95%
04:00 +20°C° 0 mm 2 m/S 745 mmHg 95%
05:00 +20°C° 0 mm 2 m/S 745 mmHg 94%
06:00 +22°C° 0 mm 3 m/S 745 mmHg 87%
07:00 +24°C° 0 mm 3 m/S 745 mmHg 80%
08:00 +26°C° 0 mm 4 m/S 746 mmHg 73%
09:00 +27°C° 0 mm 4 m/S 746 mmHg 67%
10:00 +28°C° 0 mm 4 m/S 746 mmHg 62%
11:00 +30°C° 0 mm 4 m/S 746 mmHg 56%
12:00 +30°C° 0.1 mm 4 m/S 746 mmHg 54%
13:00 +32°C° 0.1 mm 4 m/S 745 mmHg 53%
14:00 +33°C° 0.1 mm 4 m/S 745 mmHg 51%
15:00 +31°C° 0 mm 3 m/S 745 mmHg 54%
16:00 +31°C° 0 mm 3 m/S 745 mmHg 57%
17:00 +30°C° 0 mm 3 m/S 745 mmHg 60%
18:00 +29°C° 0.1 mm 2 m/S 745 mmHg 66%
19:00 +28°C° 0.1 mm 2 m/S 745 mmHg 72%
20:00 +26°C° 0.1 mm 2 m/S 745 mmHg 78%
21:00 +25°C° 0.1 mm 2 m/S 746 mmHg 81%
22:00 +24°C° 0.1 mm 2 m/S 746 mmHg 83%
23:00 +23°C° 0.1 mm 2 m/S 746 mmHg 86%

23 Juni, Mittwoch

Zeit Temperatur Niederschläge Wind Luftdruck Luftfeuchtigkeit
00:00 +21°C° 0 mm 2 m/S 746 mmHg 88%
01:00 +20°C° 0 mm 2 m/S 746 mmHg 90%
02:00 +20°C° 0 mm 2 m/S 746 mmHg 92%
03:00 +19°C° 0 mm 2 m/S 746 mmHg 92%
04:00 +19°C° 0 mm 2 m/S 746 mmHg 91%
05:00 +19°C° 0 mm 2 m/S 747 mmHg 91%
06:00 +21°C° 0 mm 2 m/S 747 mmHg 83%
07:00 +24°C° 0 mm 3 m/S 747 mmHg 74%
08:00 +26°C° 0 mm 3 m/S 747 mmHg 66%
09:00 +28°C° 0 mm 3 m/S 747 mmHg 60%
10:00 +29°C° 0 mm 4 m/S 747 mmHg 55%
11:00 +32°C° 0 mm 4 m/S 747 mmHg 49%
12:00 +33°C° 0 mm 4 m/S 747 mmHg 47%
13:00 +33°C° 0 mm 4 m/S 747 mmHg 45%
14:00 +34°C° 0 mm 4 m/S 747 mmHg 43%
15:00 +34°C° 0 mm 3 m/S 747 mmHg 44%
16:00 +34°C° 0 mm 3 m/S 747 mmHg 46%
17:00 +34°C° 0 mm 3 m/S 747 mmHg 47%
18:00 +31°C° 0 mm 2 m/S 747 mmHg 57%
19:00 +29°C° 0 mm 2 m/S 747 mmHg 66%
20:00 +27°C° 0 mm 2 m/S 747 mmHg 76%
21:00 +26°C° 0 mm 2 m/S 747 mmHg 79%
22:00 +25°C° 0 mm 2 m/S 747 mmHg 83%
23:00 +24°C° 0 mm 2 m/S 747 mmHg 86%

24 Juni, Donnerstag

Zeit Temperatur Niederschläge Wind Luftdruck Luftfeuchtigkeit
00:00 +24°C° 0 mm 2 m/S 747 mmHg 89%
01:00 +23°C° 0 mm 2 m/S 747 mmHg 91%
02:00 +23°C° 0 mm 2 m/S 747 mmHg 93%
03:00 +23°C° 0 mm 2 m/S 747 mmHg 93%
04:00 +23°C° 0 mm 2 m/S 747 mmHg 93%
05:00 +23°C° 0 mm 2 m/S 747 mmHg 92%
06:00 +25°C° 0 mm 2 m/S 747 mmHg 84%
07:00 +27°C° 0 mm 2 m/S 747 mmHg 77%
08:00 +29°C° 0 mm 3 m/S 747 mmHg 69%
09:00 +30°C° 0 mm 3 m/S 747 mmHg 63%
10:00 +32°C° 0 mm 4 m/S 747 mmHg 56%
11:00 +33°C° 0 mm 4 m/S 747 mmHg 50%
12:00 +34°C° 0 mm 4 m/S 747 mmHg 48%
13:00 +34°C° 0 mm 4 m/S 747 mmHg 45%
14:00 +35°C° 0 mm 4 m/S 747 mmHg 42%
15:00 +35°C° 0 mm 4 m/S 747 mmHg 44%
16:00 +34°C° 0 mm 3 m/S 746 mmHg 45%
17:00 +34°C° 0 mm 3 m/S 746 mmHg 47%
18:00 +32°C° 0.5 mm 4 m/S 746 mmHg 58%
19:00 +28°C° 0.5 mm 5 m/S 746 mmHg 69%
20:00 +26°C° 0.5 mm 5 m/S 746 mmHg 80%
21:00 +23°C° 0.7 mm 5 m/S 746 mmHg 82%
22:00 +21°C° 0.7 mm 4 m/S 746 mmHg 85%
23:00 +20°C° 0.7 mm 4 m/S 746 mmHg 88%

25 Juni, Freitag

Zeit Temperatur Niederschläge Wind Luftdruck Luftfeuchtigkeit
00:00 +20°C° 0.3 mm 3 m/S 746 mmHg 88%
01:00 +20°C° 0.3 mm 2 m/S 745 mmHg 89%
02:00 +21°C° 0.3 mm 1 m/S 745 mmHg 90%
03:00 +21°C° 0.1 mm 1 m/S 745 mmHg 90%
04:00 +21°C° 0.1 mm 1 m/S 745 mmHg 91%
05:00 +20°C° 0.1 mm 2 m/S 745 mmHg 92%
06:00 +20°C° 0.2 mm 2 m/S 745 mmHg 89%
07:00 +21°C° 0.2 mm 2 m/S 745 mmHg 86%
08:00 +23°C° 0.2 mm 1 m/S 745 mmHg 83%
09:00 +24°C° 0.1 mm 1 m/S 745 mmHg 81%
10:00 +24°C° 0.1 mm 1 m/S 745 mmHg 80%
11:00 +25°C° 0.1 mm 1 m/S 745 mmHg 78%
12:00 +24°C° 0.7 mm 1 m/S 745 mmHg 82%
13:00 +23°C° 0.7 mm 1 m/S 745 mmHg 86%
14:00 +22°C° 0.7 mm 1 m/S 745 mmHg 90%
15:00 +23°C° 0.4 mm 1 m/S 745 mmHg 88%
16:00 +23°C° 0.4 mm 1 m/S 745 mmHg 86%
17:00 +24°C° 0.4 mm 1 m/S 745 mmHg 84%
18:00 +23°C° 0 mm 1 m/S 744 mmHg 86%
19:00 +23°C° 0 mm 1 m/S 744 mmHg 89%
20:00 +23°C° 0 mm 1 m/S 744 mmHg 91%
21:00 +22°C° 0 mm 1 m/S 744 mmHg 92%
22:00 +21°C° 0 mm 1 m/S 744 mmHg 93%
23:00 +21°C° 0 mm 1 m/S 744 mmHg 94%
Mehr zeigen

Wir brauchen deine Erlaubnis

Meteoprog und unser Service Anbieter werden persönliche Daten aufbewahren, so wie Cookies, Geräte Bezeichnung oder ähnliche Technologien von deinem Gerät und Prozess, so wie Persönliche Daten Inhalte und Werbungen, genauso wie social Media und den Verkehr zu analysieren.

  • Aufbewahrung und/oder Zugang zu deiner Geräte Informationen.

    Cookies, Geräte Bezeichnung oder andere Informationen, können aufbewahrt oder Zugang zu deinem Gerät erhalten, für den Grund, der oben angegeben wird.

  • Personalisierte Werbung und Inhalte, Messungen, Einblick in das Publikum und Produkt Entwicklung.

    Werbungen und Inhalte können personalisiert werden, basierend auf ein Profil. Mehr Daten können besser personalisierte Werbungen und Inhalte hinzufügen. Werbung und Inhalte können gezeigt und gemessen werden. Einblicke über das Publikum, welche die Werbung gesehen haben und den Inhalt, können abgeleitet werden. So wie Daten können genutzt werden, um es zu verbessern oder die Benutzer Erfahrung zu verbessern das System und die Software.

Wenn du “Ich stimme zu” klickst, erlaubst du uns, die Cookies zu benutzen die Geräte Bezeichnung, den Web oder ähnliche Technologien zu benutzen. Deine Settings, können in deinem Gerät bei deinem Browser geändert werden.

Für den bestimmten Zweck, berechtigten Interessen beruhen darauf, mehr als auf den Inhalt. Du kannst mehr darüber in unseren Privaten und Cookie Politik lesen.